DW9104 Weather Reports


Display with metric or nautical units.
time (UTC)temp
F
wind
direction
speed
MPH
gust
MPH
rain 1hr
in
rain 24hr
in
rain mn
in
humidity
%
barometer
mb
20200606080907 48 282 1.0 8.0 0.00 0.04 0.00 83 996.6
20200606080406 48 312 2.0 10.0 0.00 0.04 0.00 82 996.6
20200606073906 48 345 2.0 7.0 0.00 0.06 0.00 80 996.7
20200606073406 48 16 1.0 8.0 0.00 0.06 0.00 79 996.8
20200606070907 48 359 2.0 8.0 0.00 0.09 0.00 78 996.8
20200606070407 48 304 1.0 7.0 0.00 0.09 0.00 78 996.8
20200606063906 47 280 1.0 5.0 0.00 0.09 0.00 78 997.0
20200606063407 47 283 2.0 12.0 0.00 0.09 0.00 78 997.0
20200606060907 47 204 1.0 5.0 0.00 0.09 0.00 78 997.0
20200606060407 47 250 1.0 8.0 0.00 0.09 0.00 78 996.9
20200606053907 46 330 0.0 6.0 0.00 0.09 0.00 78 997.0
20200606053407 46 332 1.0 9.0 0.00 0.09 0.00 78 997.1
20200606050907 45 292 0.0 1.0 0.00 0.09 0.00 79 997.3
20200606050407 45 236 0.0 8.0 0.00 0.09 0.00 79 997.2
20200606043907 43 125 0.0 1.0 0.00 0.09 0.00 80 997.5
20200606043406 43 42 0.0 3.0 0.00 0.09 0.00 80 997.5
20200606040907 42 47 0.0 2.0 0.00 0.09 0.00 81 997.5
20200606040406 42 116 0.0 5.0 0.00 0.09 0.00 81 997.6
20200606033907 42 31 0.0 3.0 0.00 0.09 0.00 82 997.9
20200606033408 42 185 0.0 6.0 0.00 0.09 0.00 82 997.8
20200606030906 42 91 0.0 1.0 0.00 0.09 0.00 81 997.9
20200606030407 42 227 0.0 5.0 0.00 0.09 0.00 81 997.9
20200606023907 42 20 0.0 3.0 0.00 0.09 0.00 80 998.2
20200606023407 42 357 1.0 7.0 0.00 0.09 0.00 80 998.3
20200606020907 43 347 1.0 6.0 0.00 0.09 0.00 79 998.6
20200606020406 43 73 0.0 6.0 0.00 0.09 0.00 79 998.6
20200606013907 42 2 0.0 3.0 0.00 0.09 0.00 79 998.7
20200606013407 42 353 1.0 6.0 0.00 0.09 0.00 79 998.7
20200606010907 42 5 1.0 8.0 0.00 0.09 0.00 78 998.9
20200606010406 43 235 1.0 5.0 0.00 0.09 0.00 78 998.8
20200606003907 43 308 0.0 6.0 0.00 0.09 0.00 77 999.0
20200606003407 43 312 0.0 9.0 0.00 0.09 0.00 78 999.1
20200606000907 42 260 0.0 2.0 0.00 0.09 0.00 80 999.0
20200606000406 43 36 0.0 2.0 0.00 0.09 0.00 80 999.0
20200605233907 43 106 0.0 1.0 0.00 0.09 0.00 79 999.2
20200605233407 44 27 0.0 3.0 0.00 0.09 0.00 79 999.2
20200605230907 45 32 1.0 3.0 0.00 0.09 0.00 76 999.3
20200605230407 46 275 0.0 6.0 0.00 0.10 0.00 76 999.4
20200605223907 46 56 1.0 3.0 0.00 0.15 0.12 76 999.5
20200605223407 46 88 0.0 2.0 0.00 0.15 0.12 75 999.5
20200605220906 47 24 1.0 3.0 0.00 0.15 0.12 73 999.5
20200605220406 47 33 1.0 3.0 0.00 0.15 0.12 73 999.5
20200605213907 48 334 2.0 8.0 0.00 0.15 0.12 71 999.6
20200605213407 47 34 0.0 3.0 0.00 0.15 0.12 71 999.5
20200605210906 47 28 0.0 1.0 0.00 0.15 0.12 72 999.5
20200605210407 47 28 0.0 3.0 0.00 0.15 0.12 71 999.4
20200605203906 49 321 0.0 2.0 0.00 0.15 0.12 68 999.3
20200605203407 49 44 0.0 7.0 0.00 0.15 0.12 67 999.2
20200605200907 51 7 2.0 6.0 0.00 0.15 0.12 62 999.1
20200605200406 51 11 2.0 9.0 0.00 0.15 0.12 61 999.1
20200605193907 54 25 2.0 8.0 0.00 0.15 0.12 57 999.0
20200605193406 54 353 2.0 9.0 0.00 0.15 0.12 56 999.0
20200605190907 55 57 2.0 10.0 0.00 0.15 0.12 55 998.9
20200605190407 55 217 1.0 9.0 0.00 0.15 0.12 56 998.9
20200605183907 54 1 2.0 9.0 0.00 0.15 0.12 55 998.8
20200605183407 54 2 2.0 14.0 0.00 0.15 0.12 54 998.6
20200605180907 54 0 2.0 9.0 0.00 0.15 0.12 60 998.7
20200605180406 54 2 1.0 6.0 0.00 0.15 0.12 61 998.7
20200605173907 54 51 1.0 7.0 0.00 0.15 0.12 66 998.7
20200605173407 53 49 2.0 12.0 0.00 0.15 0.12 60 998.8
20200605170907 56 24 2.0 13.0 0.01 0.15 0.12 56 998.6
20200605170407 56 359 2.0 12.0 0.01 0.15 0.12 56 998.6
20200605163906 57 25 5.0 13.0 0.01 0.15 0.12 59 998.7
20200605163407 57 28 1.0 12.0 0.01 0.15 0.12 60 998.5
20200605160907 53 31 2.0 7.0 0.00 0.14 0.11 69 998.7
20200605160407 54 342 2.0 13.0 0.00 0.14 0.11 62 998.8
20200605153907 54 25 5.0 14.0 0.00 0.14 0.11 52 998.7
20200605153407 55 13 4.0 12.0 0.00 0.14 0.11 52 998.6
20200605150906 56 351 4.0 14.0 0.00 0.14 0.11 49 998.6
20200605150406 57 298 3.0 14.0 0.00 0.14 0.11 48 998.7
20200605143907 59 14 3.0 12.0 0.00 0.14 0.11 51 998.7
20200605143407 58 12 3.0 14.0 0.00 0.14 0.11 50 998.7
20200605140907 56 24 3.0 12.0 0.00 0.14 0.11 54 998.7
20200605140407 56 18 6.0 15.0 0.00 0.14 0.11 50 998.6
20200605133907 56 8 3.0 12.0 0.00 0.14 0.11 58 998.7
20200605133407 55 0 6.0 16.0 0.00 0.14 0.11 57 998.6
20200605130907 56 16 3.0 13.0 0.00 0.14 0.11 59 998.6
20200605130407 55 149 5.0 12.0 0.00 0.14 0.11 61 998.7
20200605123907 53 330 5.0 12.0 0.00 0.14 0.11 70 998.6
20200605123406 52 38 5.0 17.0 0.00 0.14 0.11 70 998.8
20200605120907 57 6 3.0 12.0 0.00 0.14 0.11 60 998.3
20200605120407 56 9 3.0 14.0 0.00 0.14 0.11 65 998.1
20200605113907 53 4 3.0 10.0 0.02 0.14 0.11 76 998.4
20200605113407 52 32 3.0 8.0 0.02 0.14 0.11 78 998.5
20200605110907 50 49 2.0 6.0 0.02 0.14 0.11 84 998.6
20200605110406 49 24 3.0 12.0 0.02 0.14 0.11 84 998.5
20200605103906 53 64 2.0 5.0 0.00 0.13 0.09 75 998.3
20200605103406 52 28 3.0 8.0 0.00 0.13 0.09 76 998.3
20200605100907 51 73 1.0 5.0 0.00 0.13 0.09 83 998.5
20200605100407 50 25 2.0 6.0 0.00 0.13 0.09 83 998.5
20200605093906 48 33 1.0 6.0 0.02 0.13 0.09 86 998.6
20200605093407 48 20 3.0 12.0 0.02 0.13 0.09 85 998.6
20200605090907 46 7 3.0 6.0 0.02 0.13 0.09 89 998.5
20200605090407 46 2 1.0 12.0 0.02 0.13 0.09 90 998.5
20200605083907 46 22 3.0 9.0 0.02 0.11 0.08 89 998.5
20200605083407 46 336 1.0 8.0 0.02 0.11 0.08 90 998.5